World > North America > United States > Iowa > Lawn Hill  

Lawn Hill, IA Hourly Weather Updates

Feedback E-mail the Weather

Quick Clicks

Lawn Hill, IA Weather Maps

°F °C°F °C
Lawn Hill Weather Map
UTC Time: 5/27/2024, 01:23
Your Time:

Lawn Hill, IA Regional Weather

Expires:202405270200;;933109
ASUS43 KDMX 270106
RWRIA 

WEATHER ROUNDUP FOR IOWA
NATIONAL WEATHER SERVICE DES MOINES IA
800 PM CDT SUN MAY 26 2024

NOTE: "FAIR" INDICATES FEW OR NO CLOUDS BELOW 12,000 FEET WITH NO
SIGNIFICANT WEATHER AND/OR OBSTRUCTIONS TO VISIBILITY.

* - THESE STATIONS ARE NOT NWS STATIONS...THUS NOT UNDER NWS
QUALITY CONTROL.  THEY ALSO DO NOT REPORT WEATHER SUCH 
AS PRECIPITATION OR FOG.  


IAZ007>011-017>019-026>030-037>042-050>054-066-270200-
   NORTHEAST IOWA
  
CITY           SKY/WX    TMP DP  RH WIND       PRES   REMARKS
CEDAR RAPIDS   PTCLDY    61  55  81 NW13      29.62R TC  16           
CHARLES CITY * CLOUDY    59  59 100 N13G18    29.65F TC  15           
CLINTON *      MOCLDY    63  58  83 NW16      29.60R TC  17           
DECORAH *      CLOUDY    55  55 100 N14G22    29.62S TC  13           
DUBUQUE        CLOUDY    58  53  84 NW9G18    29.60R TC  14           
MONTICELLO *   CLOUDY    61  55  82 NW12      29.60R TC  16           
OELWEIN *      CLOUDY    57  55  94 N15G22    29.64R TC  14           
WATERLOO       PTCLDY    62  53  72 N14       29.63S TC  17           
$$
 

SKY/WX - Weather  TMP - Temperature  DP - Dew Point  RH - Humidity
WIND - Wind Direction/Speed PRES - Barometric Pressure VSB - Visibility
WCI - Wind Chill Index E13G22 Wind - East Wind 13 mph/Gusts of 22 mph

Trending Headlines

Trending Entertainment Headlines

Lawn Hill Radar Loop

Use the map search tool if you want to place a location marker on the radar map...

Lawn Hill Quick Facts

National Two Day Weather Forecast


E-mail the Lawn Hill Weather Forecast

Voice your opinion or tell us about page issues...